Volver al catálogo

CUBY-1

ActivoCienciaSSO
NORAD 69902·PAYLOAD·🇦🇹 Austria

Lanzado Jul 7, 2026 desde Vandenberg Space Force Base

Loading…

Próximos Pases (próximas 24 horas)

TLE

ActualizadoSource: Space-Track

Época: Sep 14, 2026, 04:39 UTC

1 69902U 26156AK  26257.19413801  .00001523  00000-0  15906-3 0  9990
2 69902  97.7415 156.3858 0002506 258.5929 101.5008 14.91158958 10265

Sigue CUBY-1 en tiempo real con AllMySat

Download on the App Store